Regional Weather Roundup
Issued by NWS

Home | Current Version | Previous Version | Graphics & Text | Print | Product List | Glossary Off
Versions: 1 2 3 4 5 6 7 8 9 10 11 12 13 14 15 16 17 18 19 20 21 22 23 24 25 26 27 28 29 30 31 32 33 34 35 36 37 38 39 40 41 42 43 44 45 46 47 48 49 50

000
ASUS43 KMPX 301710
RWRMN
WEATHER ROUNDUP FOR MINNESOTA
NATIONAL WEATHER SERVICE TWIN CITIES/CHANHASSEN MN
1200 PM CDT THU MAR 30 2017


NOTE: "FAIR" INDICATES FEW OR NO CLOUDS BELOW 12,000 FEET WITH NO
SIGNIFICANT WEATHER AND/OR OBSTRUCTIONS TO VISIBILITY. N/A MEANS
CURRENT SKY AND/OR WEATHER CONDITIONS ARE NOT AVAILABLE.

MNZ060>063-068>070-301800-
   Twin Cities Metro

CITY           SKY/WX    TMP DP  RH WIND       PRES   REMARKS
TWIN CITIES    CLOUDY    43  34  70 E15       29.86F
ST PAUL        CLOUDY    43  36  76 NE16G22   29.88F
CRYSTAL        CLOUDY    44  33  65 E12       29.86F
BLAINE         CLOUDY    46  37  71 NE12G18   29.87F
LAKEVILLE      CLOUDY    39  37  93 E10       29.85F
EDEN PRAIRIE   CLOUDY    44  35  70 E14G25    29.84F
SOUTH ST PAUL  CLOUDY    43  36  75 E13G20    29.86F
LAKE ELMO      CLOUDY    43  36  75 NE17      29.88F
$$
MNZ001>005-007-008-013>017-022>024-027-028-301800-
   Northwest Minnesota

CITY           SKY/WX    TMP DP  RH WIND       PRES   REMARKS
BEMIDJI        SUNNY     45  34  66 E7        29.93F
HALLOCK        CLOUDY    45  41  87 S12       29.91R
ROSEAU         CLOUDY    46  39  76 S7        29.93F
WARROAD        CLOUDY    48  39  71 CALM      29.94F
THIEF RVR FALL   N/A    N/A N/A N/A MISG        N/A
CROOKSTON      CLOUDY    41  39  93 S10       29.95S FOG
FOSSTON        SUNNY     46  45  93 SE3       29.94F
DETROIT LAKES  MOSUNNY   46  36  66 SE8       29.92S
MOORHEAD       SUNNY     46  39  76 E6        29.93F
PARK RAPIDS    MOSUNNY   49  31  49 E13       29.90F
MAHNOMEN       FAIR      44  37  76 CALM      29.92F
$$
MNZ006-009>011-018-025>026-301800-
   North Central Minnesota

CITY           SKY/WX    TMP DP  RH WIND       PRES   REMARKS
BAUDETTE         N/A    N/A N/A N/A MISG      29.94F
FLAG ISLAND    CLOUDY    34  30  86 SE7       29.95S WCI  28
INTL FALLS     SUNNY     48  33  56 CALM      29.96F
WASKISH        MOSUNNY   45  37  76 W7        29.94F
BIG FORK       SUNNY     48  34  57 E7        29.95F
LONGVILLE      SUNNY     45  34  65 E7        29.94F
GRAND RAPIDS   SUNNY     42  33  70 CALM      29.97F
CRANE LAKE     SUNNY     45  30  57 NW7       29.99F
ORR            SUNNY     48  28  46 CALM      29.94F
COOK           SUNNY     48  34  57 CALM      29.95F
WALKER         FAIR      35  31  85 E3        29.95F
$$
MNZ012-019>021-037-301800-
   Northeast Minnesota

CITY           SKY/WX    TMP DP  RH WIND       PRES   REMARKS
DULUTH         MOSUNNY   44  31  60 E15       29.95F
ELY            SUNNY     46  28  49 SE7       29.96F
HIBBING        MOSUNNY   45  30  55 SE8       29.95F
EVELETH        SUNNY     46  23  39 E5        29.97F
DULUTH HARBOR  MOSUNNY   37  34  87 NE18      30.00F
TWO HARBORS    SUNNY     46  34  61 E13       29.96F
GRAND MARAIS     N/A     37  30  75 E14G21    30.04F
G MARAIS ARPRT MOSUNNY   39  23  52 E9        30.00F
$$
MNZ029>031-032-039>041-046>048-054>057-064-301800-
   West Central Minnesota

CITY           SKY/WX    TMP DP  RH WIND       PRES   REMARKS
FERGUS FALLS   MOSUNNY   48  34  57 SE10G16   29.92F
WHEATON        PTSUNNY   46  36  66 E12       29.91F
MORRIS         PTSUNNY   46  37  71 E14G21    29.88F
ALEXANDRIA     MOSUNNY   46  33  60 E15       29.89F
ELBOW LAKE     PTSUNNY   48  34  58 SE14      29.89F
WADENA         SUNNY     46  32  57 E15       29.89F
GLENWOOD       MOSUNNY   45  36  70 E13       29.89F
APPLETON       CLOUDY    45  37  76 E12       29.87F
BENSON         CLOUDY    48  34  57 SE10G18   29.89F
ORTONVILLE     CLOUDY    43  36  75 E9        29.88F
MADISON        CLOUDY    46  39  76 E8        29.87F
WILLMAR        PTSUNNY   45  36  70 E13       29.88F
$$
MNZ033>034-036-042>043-049>051-058-059-301800-
   Central Minnesota

CITY           SKY/WX    TMP DP  RH WIND       PRES   REMARKS
ST CLOUD       CLOUDY    44  33  65 NE14G20   29.89F
SAUK CENTRE    CLOUDY    43  33  68 E12G18    29.89F
PAYNESVILLE    CLOUDY    43  33  68 E8        29.89F
AITKIN         CLOUDY    46  28  49 E8        29.92F
PINE RIVER     SUNNY     43  34  70 E10       29.96F
BRAINERD       MOSUNNY   45  29  53 E12       29.92F
STAPLES        SUNNY     46  28  49 E8G17     29.91F
LONG PRAIRIE   PTSUNNY   45  32  61 NE14      29.90F
LITTLE FALLS   PTSUNNY   45  32  61 E9        29.90F
LITCHFIELD     CLOUDY    46  37  71 E9        29.87F
BUFFALO        CLOUDY    46  35  65 E13G21    29.88F
MAPLE LAKE     CLOUDY    47  37  67 E12       29.88F
HUTCHINSON     CLOUDY    43  38  83 NE14      29.87F
$$
MNZ037-044-045-052-053-301800-
   East Central Minnesota

CITY           SKY/WX    TMP DP  RH WIND       PRES   REMARKS
PRINCETON      CLOUDY    46  34  61 NE10G16   29.89F
MORA           CLOUDY    43  32  65 E8        29.92F
CAMBRIDGE      CLOUDY    46  34  61 NE10      29.88F
RUSH CITY      CLOUDY    46  32  58 NE9       29.91F
MOOSE LAKE     SUNNY     43  32  65 NE7G18    29.92F
CLOQUET        SUNNY     41  28  60 E8        29.95F
MCGREGOR       MOSUNNY   46  32  57 E10       29.94F
$$
MNZ071>073-080-081-089-090-097-098-301800-
   Southwest Minnesota

CITY           SKY/WX    TMP DP  RH WIND       PRES   REMARKS
MONTEVIDEO     CLOUDY    45  37  76 SE10      29.87F
GRANITE FALLS  CLOUDY    44  37  77 NE8       29.88F
CANBY          CLOUDY    43  38  80 CALM      29.87F
MARSHALL       CLOUDY    41  37  86 E16       29.85F
REDWOOD FALLS  CLOUDY    42  37  82 E12G18    29.84F
OLIVIA         CLOUDY    41  36  81 E10       29.85F
PIPESTONE      CLOUDY    39  34  81 E10G17    29.81F
WINDOM         CLOUDY    37  37 100 NE16      29.81F
WORTHINGTON    CLOUDY    37  36  96 NE17      29.80F
JACKSON        CLOUDY    36  36 100 NE16      29.80F
TRACY          CLOUDY    40  38  93 E15       29.84F
SLAYTON        CLOUDY    37  36  97 NE12G17   29.82F
$$
MNZ065>067-074>077-082>085-091>093-301800-
   South Central Minnesota

CITY           SKY/WX    TMP DP  RH WIND       PRES   REMARKS
MANKATO        CLOUDY    39  36  89 E15       29.83F
NEW ULM        CLOUDY    39  36  87 E12G17    29.83F
ST JAMES       CLOUDY    39  37  93 NE18      29.83F
FAIRMONT       CLOUDY    38  36  92 NE14      29.80F
GLENCOE        CLOUDY    43  40  86 NE8G18    29.85F
FARIBAULT      CLOUDY    39  37  93 NE10G18   29.84F
OWATONNA       CLOUDY    37  36  93 NE12      29.81F
WASECA         CLOUDY    39  36  87 NE17      29.82F
ALBERT LEA     CLOUDY    37  37 100 NE15      29.78F
$$
MNZ078>079-086>088-094>096-301800-
   Southeast Minnesota

CITY           SKY/WX    TMP DP  RH WIND       PRES   REMARKS
ROCHESTER      CLOUDY    39  37  92 E21       29.76F
RED WING       CLOUDY    41  36  81 E10G17    29.84F
STANTON        CLOUDY    40  36  84 NE14      29.83F
DODGE CENTER   CLOUDY    37  36  93 NE13      29.79F
WINONA         CLOUDY    39  36  87 E9G17     29.81F
AUSTIN         CLOUDY    39  36  87 NE15G21   29.76F
PRESTON        CLOUDY    37  34  90 NE15G22   29.74F
$$
ABBREVIATIONS USED IN REMARKS
   TC - TEMPERATURES IN CELSIUS
  WCI - WIND CHILL INDEX
   HX - HEAT INDEX
  VSB - VISIBILITY
$$



USA.gov is the U.S. government's official web portal to all federal, state and local government web resources and services.